RAM265 GMMX-LEIB

Flight info

Callsign RAM265
Flight time N/A
Altitude 34000
Route OBOGA DCT VALBA UG850 FES/N0459F350 UA411 MOS/N0459F360 UA34 HAMRA DCT RINDI DCT RAFOL DCT RUXET
Aircraft B738/M-SDE2E3FGHIRWXY/LB1

Departure

Time 2026-04-30 14:23
Airport Marrakesh Menara Airport (GMMX)

Arrival

Time N/A
Airport Ibiza Airport (LEIB)
Time Latitude Longitude Altitude Speed Heading
2026-04-30 13:30 31.60050 -8.02334 1550 ft 0 kts 276°
2026-04-30 13:49 31.60050 -8.02332 1550 ft 2 kts 276°
2026-04-30 13:49 31.60051 -8.02312 1550 ft 3 kts 235°
2026-04-30 13:49 31.60065 -8.02295 1550 ft 3 kts 226°
2026-04-30 13:50 31.60076 -8.02278 1550 ft 3 kts 258°
2026-04-30 13:50 31.60081 -8.02238 1551 ft 3 kts 282°
2026-04-30 13:50 31.60075 -8.02228 1551 ft 3 kts 349°
2026-04-30 13:51 31.60057 -8.02228 1551 ft 3 kts
2026-04-30 13:51 31.60036 -8.02231 1551 ft 3 kts
2026-04-30 13:51 31.60017 -8.02232 1551 ft 1 kts
2026-04-30 13:59 31.60070 -8.02329 1550 ft 0 kts 262°
2026-04-30 14:10 31.60070 -8.02327 1550 ft 2 kts 262°
2026-04-30 14:10 31.60073 -8.02304 1550 ft 3 kts 262°
2026-04-30 14:10 31.60076 -8.02281 1550 ft 3 kts 262°
2026-04-30 14:11 31.60078 -8.02261 1551 ft 3 kts 262°
2026-04-30 14:11 31.60080 -8.02240 1551 ft 3 kts 288°
2026-04-30 14:11 31.60072 -8.02228 1551 ft 3 kts 351°
2026-04-30 14:11 31.60054 -8.02228 1551 ft 3 kts
2026-04-30 14:12 31.60033 -8.02231 1551 ft 3 kts
2026-04-30 14:12 31.60017 -8.02233 1551 ft 0 kts
2026-04-30 14:18 31.60028 -8.02232 1551 ft 6 kts
2026-04-30 14:18 31.60173 -8.02212 1551 ft 11 kts
2026-04-30 14:19 31.60331 -8.02192 1551 ft 14 kts
2026-04-30 14:19 31.60387 -8.02132 1551 ft 8 kts 99°
2026-04-30 14:19 31.60380 -8.02088 1552 ft 8 kts 98°
2026-04-30 14:20 31.60402 -8.02040 1552 ft 8 kts 15°
2026-04-30 14:20 31.60447 -8.02034 1552 ft 4 kts
2026-04-30 14:20 31.60449 -8.02034 1552 ft 0 kts
2026-04-30 14:21 31.60501 -8.02027 1551 ft 10 kts
2026-04-30 14:22 31.60557 -8.02044 1551 ft 6 kts 310°
2026-04-30 14:22 31.60559 -8.02143 1550 ft 0 kts 275°
2026-04-30 14:22 31.60560 -8.02158 1550 ft 15 kts 275°
2026-04-30 14:23 31.60685 -8.03581 1533 ft 153 kts 275°
2026-04-30 14:23 31.60916 -8.06513 2685 ft 183 kts 275°
2026-04-30 14:24 31.61181 -8.09360 4476 ft 176 kts 277°
2026-04-30 14:24 31.61315 -8.10808 5069 ft 191 kts 276°
2026-04-30 14:25 31.61636 -8.14336 5528 ft 241 kts 276°
2026-04-30 14:25 31.62986 -8.17977 6593 ft 257 kts 319°
2026-04-30 14:26 31.66376 -8.19123 8082 ft 266 kts 11°
2026-04-30 14:26 31.68068 -8.18249 8820 ft 271 kts 40°
2026-04-30 14:26 31.69717 -8.14404 10298 ft 275 kts 81°
2026-04-30 14:27 31.70067 -8.12142 11027 ft 279 kts 82°
2026-04-30 14:27 31.70390 -8.09878 11762 ft 283 kts 82°
2026-04-30 14:27 31.70709 -8.07584 12500 ft 287 kts 82°
2026-04-30 14:28 31.71360 -8.02906 13944 ft 294 kts 81°
2026-04-30 14:28 31.71693 -8.00517 14571 ft 299 kts 81°
2026-04-30 14:28 31.72113 -7.98106 15180 ft 304 kts 68°
2026-04-30 14:28 31.73188 -7.95938 15560 ft 317 kts 50°
2026-04-30 14:29 31.76261 -7.91739 15879 ft 360 kts 47°
2026-04-30 14:29 31.79731 -7.87051 16177 ft 399 kts 48°
2026-04-30 14:30 31.85286 -7.79392 17601 ft 418 kts 46°
2026-04-30 14:31 31.89244 -7.74292 18679 ft 426 kts 45°
2026-04-30 14:31 31.93284 -7.69129 19695 ft 432 kts 45°
2026-04-30 14:31 31.95321 -7.66504 20208 ft 435 kts 45°
2026-04-30 14:32 31.99425 -7.61186 21148 ft 442 kts 46°
2026-04-30 14:32 32.01498 -7.58492 21615 ft 445 kts 46°
2026-04-30 14:32 32.03589 -7.55773 22066 ft 449 kts 46°
2026-04-30 14:33 32.05697 -7.53031 22513 ft 452 kts 46°
2026-04-30 14:33 32.09943 -7.47503 23388 ft 458 kts 46°
2026-04-30 14:33 32.12084 -7.44708 23779 ft 461 kts 46°
2026-04-30 14:34 32.14207 -7.41931 24123 ft 464 kts 46°
2026-04-30 14:34 32.16404 -7.39056 24487 ft 466 kts 46°
2026-04-30 14:34 32.18582 -7.36202 24833 ft 469 kts 46°
2026-04-30 14:34 32.20770 -7.33335 25169 ft 471 kts 46°
2026-04-30 14:35 32.25157 -7.27580 25814 ft 477 kts 47°
2026-04-30 14:35 32.27381 -7.24660 26123 ft 480 kts 47°
2026-04-30 14:35 32.29617 -7.21725 26422 ft 482 kts 47°
2026-04-30 14:36 32.31872 -7.18765 26705 ft 485 kts 47°
2026-04-30 14:36 32.34137 -7.15789 26984 ft 488 kts 47°
2026-04-30 14:36 32.36411 -7.12797 27277 ft 491 kts 47°
2026-04-30 14:36 32.38695 -7.09789 27584 ft 493 kts 47°
2026-04-30 14:37 32.40991 -7.06763 27853 ft 495 kts 47°
2026-04-30 14:37 32.43294 -7.03725 28123 ft 498 kts 48°
2026-04-30 14:37 32.45612 -7.00664 28380 ft 500 kts 48°
2026-04-30 14:37 32.47936 -6.97592 28643 ft 502 kts 48°
2026-04-30 14:38 32.50271 -6.94505 28953 ft 503 kts 48°
2026-04-30 14:38 32.52610 -6.91408 29343 ft 502 kts 48°
2026-04-30 14:38 32.54935 -6.88328 29760 ft 501 kts 49°
2026-04-30 14:38 32.57254 -6.85254 30126 ft 501 kts 49°
2026-04-30 14:39 32.59580 -6.82167 30409 ft 501 kts 49°
2026-04-30 14:39 32.61902 -6.79083 30729 ft 501 kts 49°
2026-04-30 14:39 32.64218 -6.76005 31071 ft 500 kts 49°
2026-04-30 14:40 32.68829 -6.69868 31758 ft 497 kts 49°
2026-04-30 14:40 32.71135 -6.66796 32112 ft 496 kts 49°
2026-04-30 14:40 32.73428 -6.63737 32456 ft 495 kts 49°
2026-04-30 14:40 32.75711 -6.60689 32777 ft 494 kts 49°
2026-04-30 14:41 32.77963 -6.57681 33118 ft 492 kts 50°
2026-04-30 14:41 32.80233 -6.54645 33469 ft 491 kts 50°
2026-04-30 14:41 32.82500 -6.51611 33824 ft 489 kts 50°
2026-04-30 14:41 32.84753 -6.48593 34037 ft 490 kts 50°
2026-04-30 14:42 32.89301 -6.42493 34023 ft 493 kts 50°
2026-04-30 14:42 32.93825 -6.36425 34011 ft 487 kts 50°
2026-04-30 14:43 32.98314 -6.30425 34029 ft 485 kts 50°
2026-04-30 14:43 33.02795 -6.24431 34028 ft 484 kts 50°
2026-04-30 14:44 33.07265 -6.18435 34033 ft 483 kts 50°
2026-04-30 14:44 33.11730 -6.12434 34028 ft 483 kts 51°
2026-04-30 14:45 33.16185 -6.06435 34039 ft 483 kts 51°
2026-04-30 14:45 33.20632 -6.00437 34045 ft 483 kts 51°
2026-04-30 14:46 33.25093 -5.94410 34038 ft 483 kts 51°
2026-04-30 14:46 33.29538 -5.88396 34044 ft 482 kts 51°
2026-04-30 14:47 33.33974 -5.82383 34052 ft 482 kts 51°
2026-04-30 14:47 33.38391 -5.76361 34057 ft 481 kts 51°
2026-04-30 14:48 33.42804 -5.70326 34062 ft 481 kts 51°